Retour au catalogue

USA 76

ActifMilitaireLEO
NORAD 21808·PAYLOAD·🇺🇸 United States

Lancé Nov 8, 1991 depuis Vandenberg Space Force Base

Loading…

Prochains Passages (prochaines 24 heures)

TLE

FraisSource: Space-Track

Époque: Sep 14, 2026, 11:59 UTC

1 21808U 91076D   26257.49980479  .00003434  00000-0  26716-3 0  9993
2 21808  63.2962 273.0796 0883211  76.1790 293.5838 13.60591116118186

Suivez USA 76 en temps réel avec AllMySat

Download on the App Store